Dabolim Airport


Codes: VAGO/GOI
Name: Dabolim Airport
City: Vasco da Gama
Country: India
Elevation: 150 ft.
Wikipedia:

Photos at Dabolim Airport


   Photos courtesy of SpottingLog. You can add your own sightings and photos by signing up for a free trial today.



VP-BLT, 04-Nov-2016
© Jayesh Inde


Weather at Dabolim Airport


Time (UTC)DescriptionTempratureWindCloud coverageVisibilityPressureHumidity
21-Jun-2024 12:00Moderate Rain28°C13 mph, W99%5037m1005hPa81%
21-Jun-2024 15:00Moderate Rain28°C13 mph, W100%10000m1006hPa82%
21-Jun-2024 18:00Moderate Rain28°C13 mph, W99%10000m1006hPa84%
21-Jun-2024 21:00Moderate Rain28°C16 mph, W95%10000m1004hPa84%
22-Jun-2024 00:00Moderate Rain28°C16 mph, W96%10000m1004hPa84%
22-Jun-2024 03:00Moderate Rain28°C13 mph, W92%3174m1006hPa86%
22-Jun-2024 06:00Moderate Rain28°C16 mph, W97%8715m1006hPa83%
22-Jun-2024 09:00Moderate Rain28°C16 mph, W99%10000m1004hPa85%
22-Jun-2024 12:00Moderate Rain28°C13 mph, W99%7116m1004hPa82%
22-Jun-2024 15:00Moderate Rain28°C11 mph, W99%10000m1005hPa80%
22-Jun-2024 18:00Moderate Rain27°C9 mph, NW99%10000m1006hPa82%
22-Jun-2024 21:00Moderate Rain27°C11 mph, W97%6398m1004hPa83%
23-Jun-2024 00:00Moderate Rain28°C13 mph, NW99%5143m1004hPa84%
23-Jun-2024 03:00Moderate Rain27°C16 mph, NW99%6437m1005hPa83%
23-Jun-2024 06:00Moderate Rain28°C20 mph, W99%5021m1005hPa80%
23-Jun-2024 09:00Moderate Rain28°C22 mph, W100%7595m1003hPa79%
23-Jun-2024 12:00Moderate Rain28°C22 mph, W100%10000m1003hPa76%
23-Jun-2024 15:00Light Rain27°C16 mph, W100%10000m1005hPa77%
23-Jun-2024 18:00Light Rain28°C13 mph, W100%10000m1005hPa76%
23-Jun-2024 21:00Moderate Rain27°C18 mph, W100%6252m1003hPa80%
24-Jun-2024 00:00Moderate Rain27°C18 mph, W100%4464m1003hPa85%
24-Jun-2024 03:00Moderate Rain27°C20 mph, W100%5385m1005hPa84%
24-Jun-2024 06:00Moderate Rain27°C20 mph, W100%6340m1005hPa82%
24-Jun-2024 09:00Moderate Rain27°C20 mph, W100%10000m1003hPa82%
24-Jun-2024 12:00Moderate Rain26°C16 mph, W100%10000m1004hPa85%
24-Jun-2024 15:00Light Rain27°C13 mph, W100%10000m1005hPa76%
24-Jun-2024 18:00Light Rain27°C7 mph, SW100%7682m1005hPa82%
24-Jun-2024 21:00Light Rain27°C11 mph, SW100%10000m1003hPa77%
25-Jun-2024 00:00Light Rain27°C16 mph, W100%7259m1003hPa79%
25-Jun-2024 03:00Light Rain28°C16 mph, SW100%9281m1005hPa78%
25-Jun-2024 06:00Light Rain28°C20 mph, W99%7980m1004hPa81%
25-Jun-2024 09:00Moderate Rain27°C20 mph, W100%10000m1003hPa87%
25-Jun-2024 12:00Moderate Rain27°C18 mph, W100%10000m1004hPa84%
25-Jun-2024 15:00Heavy Intensity Rain26°C16 mph, W100%2777m1005hPa90%
25-Jun-2024 18:00Moderate Rain26°C16 mph, W100%4251m1006hPa90%
25-Jun-2024 21:00Moderate Rain26°C16 mph, W100%10000m1004hPa92%
26-Jun-2024 00:00Moderate Rain27°C16 mph, SW100%10000m1004hPa88%
26-Jun-2024 03:00Moderate Rain27°C18 mph, W98%10000m1005hPa89%
26-Jun-2024 06:00Light Rain27°C16 mph, W100%10000m1005hPa83%
26-Jun-2024 09:00Moderate Rain28°C18 mph, W100%5448m1004hPa82%